Weather History for Lake Charles Regional, LA

Change the Weather History Date:

Sunday, March 16, 2014

  Actual Average Record
Temperature  
Mean Temperature 57 °F 61 °F  
Max Temperature 68 °F 72 °F 86 °F (1907)
Min Temperature 46 °F 51 °F 25 °F (1913)
Degree Days  
Heating Degree Days 8 5  
Month to date heating degree days 165 104  
Since 1 July heating degree days 1816 1386  
Cooling Degree Days 0 2  
Month to date cooling degree days 3 19  
Year to date cooling degree days 18 42  
Growing Degree Days 8 (Base 50)    
Moisture  
Dew Point 59 °F    
Average Humidity 82    
Maximum Humidity 100    
Minimum Humidity 63    
Precipitation  
Precipitation 0.22 in 0.12 in 1.71 in (1998)
Month to date precipitation 1.56 1.90  
Year to date precipitation 8.35 10.59  
Snow  
Snow 0.00 in 0.00 in 0.00 in ()
Month to date snowfall 0.0 0.0  
Since 1 July snowfall 0.1 0.1  
Snow Depth 0.00 in    
Sea Level Pressure  
Sea Level Pressure 29.77 in    
Wind  
Wind Speed 13 mph (WNW)    
Max Wind Speed 25 mph    
Max Gust Speed 31 mph    
Visibility 6 miles    
Events Fog , Rain , Thunderstorm    
T = Trace of Precipitation, MM = Missing Value Source: NWS Daily Summary

Daily Weather History Graph

Daily Weather History Graph

Search for Another Location

Airport:

Trip Planner

Search our weather history database for the weather conditions in past years. The results will help you decide how hot, cold, wet, or windy it might be!

Date:

Astronomy

Mar. 16, 2014 Rise Set
Actual Time 7:21 AM CDT 7:21 PM CDT
Civil Twilight 6:57 AM CDT 7:45 PM CDT
Nautical Twilight 6:29 AM CDT 8:13 PM CDT
Astronomical Twilight 6:01 AM CDT 8:41 PM CDT
Moon 7:36 PM CDT (3/16) 7:06 AM CDT (3/16)
Length of Visible Light 12h 48m
Length of Day
12h 00m
Full, 100% of the Moon is Illuminated
Mar 16
Full
Mar 16
Full
Mar 23
Last Quarter
Mar 30
New
Apr 7
First Quarter

Hourly Weather History & Observations

Time (CDT) Temp. Dew Point Humidity Pressure Visibility Wind Dir Wind Speed Gust Speed Precip Events Conditions
12:24 AM 66.9 °F 66.0 °F 97% 29.74 in - SSW 13.8 mph 20.7 mph N/A   Overcast
12:53 AM 66.9 °F 66.0 °F 97% 29.76 in - SSW 13.8 mph 20.7 mph N/A   Overcast
1:53 AM 66.0 °F 66.0 °F 100% 29.75 in - SW 10.4 mph - N/A   Overcast
2:53 AM 66.9 °F 66.9 °F 100% 29.75 in - WSW 6.9 mph - N/A   Overcast
3:20 AM 66.9 °F 66.9 °F 100% 29.74 in - WSW 8.1 mph - N/A   Unknown
3:53 AM 66.9 °F 66.9 °F 100% 29.76 in - West 8.1 mph - N/A   Unknown
4:08 AM 66.9 °F 66.9 °F 100% 29.73 in - WSW 8.1 mph - N/A   Overcast
4:53 AM 66.9 °F 66.9 °F 100% 29.76 in - WSW 6.9 mph - N/A   Overcast
5:53 AM 66.9 °F 66.9 °F 100% 29.75 in - SW 6.9 mph - N/A   Overcast
6:06 AM 66.9 °F 66.9 °F 100% 29.72 in 0.5 mi SW 6.9 mph - N/A Fog Fog
6:53 AM 66.9 °F 66.9 °F 100% 29.72 in 0.5 mi SSW 12.7 mph 19.6 mph N/A Fog Fog
7:53 AM 66.9 °F 66.0 °F 97% 29.76 in 0.5 mi West 6.9 mph - N/A Fog Fog
8:00 AM 66.9 °F 66.9 °F 100% 29.74 in 1.0 mi West 6.9 mph - N/A   Overcast
8:49 AM 66.2 °F 66.2 °F 100% 29.75 in 1.0 mi SW 3.5 mph - 0.04 in Rain , Thunderstorm Thunderstorms and Rain
8:53 AM 66.9 °F 66.0 °F 97% 29.78 in 1.0 mi SW 4.6 mph - 0.07 in Rain , Thunderstorm Heavy Thunderstorms and Rain
9:06 AM 66.9 °F 66.9 °F 100% 29.76 in 1.0 mi North - - 0.09 in Rain , Thunderstorm Heavy Rain
9:26 AM 66.9 °F 66.9 °F 100% 29.75 in 1.0 mi NNW 6.9 mph - 0.10 in Rain Light Rain
9:43 AM 66.9 °F 66.0 °F 97% 29.77 in 1.0 mi NW 10.4 mph - 0.14 in Rain Light Rain
9:46 AM 66.9 °F 64.9 °F 93% 29.77 in 4.0 mi NNW 10.4 mph - 0.14 in   Overcast
9:53 AM 66.9 °F 64.9 °F 93% 29.80 in 4.0 mi NW 8.1 mph - 0.15 in   Overcast
10:53 AM 66.0 °F 62.1 °F 87% 29.81 in 10.0 mi NW 10.4 mph - 0.00 in   Mostly Cloudy
11:53 AM 66.9 °F 62.1 °F 84% 29.78 in 10.0 mi NNW 8.1 mph - N/A   Scattered Clouds
12:53 PM 66.9 °F 57.0 °F 70% 29.75 in 10.0 mi NNW 16.1 mph - N/A   Clear
1:53 PM 66.0 °F 55.9 °F 70% 29.73 in 10.0 mi NNW 21.9 mph 31.1 mph N/A   Clear
2:53 PM 64.0 °F 54.0 °F 70% 29.71 in 10.0 mi NNW 20.7 mph 28.8 mph N/A   Mostly Cloudy
3:53 PM 66.9 °F 54.0 °F 63% 29.70 in 10.0 mi North 17.3 mph 26.5 mph N/A   Mostly Cloudy
4:00 PM 66.0 °F 54.0 °F 65% 29.67 in - NNW 18.4 mph 28.8 mph N/A   Scattered Clouds
4:53 PM 64.9 °F 53.1 °F 65% 29.73 in - NNW 15.0 mph - N/A   Mostly Cloudy
5:53 PM 61.0 °F 50.0 °F 67% 29.75 in - NNW 18.4 mph 29.9 mph N/A   Mostly Cloudy
6:53 PM 57.0 °F 46.9 °F 69% 29.79 in 10.0 mi NNW 18.4 mph 27.6 mph N/A   Overcast
7:01 PM 55.9 °F 46.9 °F 72% 29.77 in - NNW 15.0 mph 26.5 mph N/A   Overcast
7:53 PM 54.0 °F 45.0 °F 72% 29.83 in 10.0 mi NNW 17.3 mph 27.6 mph N/A   Overcast
8:53 PM 52.0 °F 43.0 °F 71% 29.86 in 10.0 mi North 17.3 mph 28.8 mph N/A   Overcast
9:53 PM 50.0 °F 41.0 °F 71% 29.89 in - North 20.7 mph 31.1 mph N/A   Overcast
10:53 PM 48.9 °F 39.9 °F 71% 29.93 in - NNW 17.3 mph 27.6 mph N/A   Overcast
11:53 PM 48.0 °F 39.0 °F 71% 29.92 in - NNW 16.1 mph 26.5 mph N/A   Overcast